Flag for U.S.A. Weather past 2 weeks in Bloomington, Indiana, U.S.A.

Now
72 °F

Sunny.


Feels Like: 77 °F
Forecast: 51 / 75 °F
Wind: No wind

Location: Monroe County Airport

Current Time: Jul 29, 2014 at 1:37:24 PM

Latest Report: Jul 29, 2014 at 12:53 PM


Visibility: 10 mi

Pressure: 30.08 "Hg

Humidity: 55%

Dew point: 55 °F

Location of BloomingtonLocation

Historic Weather in Bloomington — Graph

°F

Bloomington temperature yesterday

Maximum temperature yesterday: 74 °F (at 3:53 PM)
Minimum temperature yesterday: 56 °F (at 11:53 PM)
Average temperature yesterday: 67 °F

Past Weeks' High & Low Weather Summary

 TemperatureHumidityPressure
High85 °F (Jul 21, 4:53 PM)97% (Jul 21, 6:53 AM)30.17 "Hg (Jul 21, 6:53 AM)
Low51 °F (Jul 17, 5:53 AM)39% (Jul 17, 3:53 PM)29.74 "Hg (Jul 27, 5:53 PM)
Average68 °F75%30.01 "Hg
* Reported Jul 14 11:02 AM — Jul 29 11:53 AM, Bloomington, Weather by CustomWeather, © 2014

Note: Actual official high and low records may vary slightly from our data, if they occured in-between our weather recording intervals... More about our weather records

Advertising

Bloomington weather history for previous 24 hours

 ConditionsComfort  
Time TempWeatherWind HumidityBarometerVisibility
11:53 AM
Jul 29
68 °FSunny.3 mph61%30.08 "Hg10 mi
10:53 AM66 °FSunny.No wind63%30.08 "Hg10 mi
9:53 AM65 °FSunny.6 mph61%30.08 "Hg10 mi
8:53 AM60 °FSunny.No wind75%30.08 "Hg10 mi
7:53 AM55 °FPassing clouds.No wind87%30.07 "Hg10 mi
6:53 AM54 °FPartly cloudy.No wind83%30.07 "Hg10 mi
5:53 AM55 °FOvercast.3 mph80%30.06 "Hg10 mi
4:53 AM53 °FPassing clouds.No wind86%30.05 "Hg10 mi
3:53 AM53 °FPassing clouds.No wind83%30.05 "Hg10 mi
2:53 AM52 °FPassing clouds.No wind86%30.06 "Hg10 mi
1:53 AM54 °FClear.No wind80%30.06 "Hg10 mi
12:53 AM54 °FClear.5 mph80%30.06 "Hg10 mi
11:53 PM
Jul 28
56 °FClear.3 mph75%30.04 "Hg10 mi
10:53 PM58 °FClear.No wind67%30.06 "Hg10 mi
9:53 PM61 °FSunny.8 mph60%30.05 "Hg10 mi
8:53 PM66 °FMore clouds than sun.14 mph54%30.03 "Hg10 mi
7:53 PM69 °FScattered clouds.10 mph63%30.02 "Hg10 mi
6:53 PM71 °FPassing clouds.5 mph55%30.01 "Hg10 mi
5:53 PM72 °FBroken clouds.8 mph55%30.01 "Hg10 mi
4:53 PM73 °FPartly sunny.7 mph57%30.01 "Hg10 mi
3:53 PM74 °FBroken clouds.8 mph60%30.01 "Hg10 mi
2:53 PM72 °FMostly cloudy.9 mph61%30.01 "Hg10 mi
1:53 PM71 °FMore clouds than sun.7 mph63%30.01 "Hg10 mi
1:03 PM70 °FMostly cloudy.6 mph68%30.02 "Hg10 mi
Weather by CustomWeather, © 2014

See weather overviewHow to use our weather pages